Regional Weather Roundup
Issued by NWS

Home | Current Version | Previous Version | Graphics & Text | Print | Product List | Glossary On
Versions: 1 2 3 4 5 6 7 8 9 10 11 12 13 14 15 16 17 18 19 20 21 22 23 24 25 26 27 28 29 30 31 32 33 34 35 36 37 38 39 40 41 42 43 44 45 46 47 48 49 50
000
ASUS45 KPSR 230200
RWRAZ

PRELIMINARY ARIZONA REGIONAL HOURLY WEATHER ROUNDUP
NATIONAL WEATHER SERVICE PHOENIX AZ
700 PM MST MON DEC 22 2014

NOTE: FAIR INDICATES FEW OR NO CLOUDS BELOW 12,000 FEET WITH NO
SIGNIFICANT WEATHER AND/OR OBSTRUCTIONS TO VISIBILITY.

AZZ001>003-036-230300-
NORTHWEST ARIZONA

CITY           SKY/WX    TMP DP  RH WIND       PRES   REMARKS
KINGMAN        CLEAR     48  38  68 E8        30.03R
$$

AZZ004>008-015-016-018-230300-
NORTH CENTRAL ARIZONA

CITY           SKY/WX    TMP DP  RH WIND       PRES   REMARKS
GRAND CANYON   CLEAR     46  31  55 NW6       30.01R
PRESCOTT       CLEAR     50  30  46 NW10      30.01R
FLAGSTAFF      NOT AVBL
PAGE           CLEAR     54  29  38 NW9       29.94R
$$

AZZ009>014-017-230300-
NORTHEAST ARIZONA

CITY           SKY/WX    TMP DP  RH WIND       PRES   REMARKS
WINSLOW        NOT AVBL
SAINT JOHNS    PTCLDY    49  31  49 W12       29.88S
WINDOW ROCK    PTCLDY    39  31  72 W6        29.87F WCI  35
$$

AZZ023-230300-
GREATER PHOENIX AREA

CITY           SKY/WX    TMP DP  RH WIND       PRES   REMARKS
PHOENIX        CLEAR     62  43  49 CALM      29.90R
GLENDALE       CLEAR     59  46  63 CALM      29.92R
LUKE AFB       CLEAR     58  45  63 CALM      29.91R
DEER VALLEY    CLEAR     57  43  59 CALM      29.91R
SCOTTSDALE     CLEAR     57  43  59 CALM      29.92R
MESA-FALCON    CLEAR     55  41  58 W6        29.91R
$$

AZZ027-028-230300-
SOUTHWEST MARICOPA COUNTY AND PINAL COUNTY

CITY           SKY/WX    TMP DP  RH WIND       PRES   REMARKS
CASA GRANDE    CLEAR     55  41  58 MISG      29.92R
$$

AZZ503-504-507>509-230300-
SOUTHEAST ARIZONA

CITY           SKY/WX    TMP DP  RH WIND       PRES   REMARKS
TUCSON         CLEAR     57  41  55 N5        29.96R
DAVIS-MONTHAN  CLEAR     55  41  59 NW5       29.94R
RYAN FIELD       N/A     59  43  55 CALM      29.95R
NOGALES        CLEAR     54  34  46 NE7       29.96R
SIERRA VISTA   CLEAR     52  34  50 W20G26    29.95S
SAFFORD        CLEAR     54  40  59 NW12      29.85R
$$

AZZ020-021-025-026-031-230300-
SOUTHWEST ARIZONA

CITY           SKY/WX    TMP DP  RH WIND       PRES   REMARKS
YUMA           CLEAR    N/A N/A N/A CALM      29.90R
$$

CAZ031-033-041-043-047-048-061-230300-
SOUTHERN CALIFORNIA

CITY           SKY/WX    TMP DP  RH WIND       PRES   REMARKS
DOWNTOWN L.A.  CLEAR     63  55  75 CALM      29.95R
L.A. AIRPORT   PTCLDY    59  57  94 W3        29.95S FOG
SAN DIEGO      CLEAR     64  57  78 NW5       29.98R
BURBANK        CLEAR     73  42  32 SE6       29.95S
ONTARIO        CLEAR     67  50  54 CALM      29.97R
RIVERSIDE      CLEAR     66  49  54 CALM      29.97R
PALM SPRINGS   CLEAR     66  49  54 N5        29.98R
EL CENTRO NAS  CLEAR     62  51  67 N8        29.91R
IMPERIAL       CLEAR     61  53  75 NW5       29.91R
BLYTHE         CLEAR     63  52  67 NW3       29.91R
$$

NVZ020-UTZ003-230300-
SOUTHERN NEVADA-UTAH

CITY           SKY/WX    TMP DP  RH WIND       PRES   REMARKS
LAS VEGAS      NOT AVBL
SALT LAKE CITY MOCLDY    40  28  62 NW20G32   30.07R WCI  30
$$

NMZ009-TXZ055-230300-
NEW MEXICO-WEST TEXAS

CITY           SKY/WX    TMP DP  RH WIND       PRES   REMARKS
ALBUQUERQUE    PTCLDY    46  32  58 NW16      29.75S
EL PASO        PTCLDY    61  33  35 W21G36    29.73R
$$


........................KEY........................
SKY/WX - SKY CONDITION/WEATHER
TMP    - TEMPERATURE IN FAHRENHEIT
DP     - DEW POINT IN FAHRENHEIT
RH     - RELATIVE HUMIDITY IN PERCENT
WIND   - DIRECTION AND SPEED IN MILES PER HOUR (MPH)
VRB    - VARIABLE WIND DIRECTION
PRES   - MEAN SEA LEVEL PRESSURE IN INCHES OF MERCURY
         F - FALLING PRESSURE   R - RISING PRESSURE
         S - STEADY PRESSURE
VSB    - VISIBILITY IN MILES
HX     - HEAT INDEX IN FAHRENHEIT
WCI    - WIND CHILL INDEX IN FAHRENHEIT
TC     - TEMPERATURE IN CELSIUS WHICH IS ALSO KNOWN AS
         TEMPERATURE IN CENTIGRADE
AFB    - AIR FORCE BASE
         LUKE AFB IS LUKE AIR FORCE BASE
         DAVIS-MONTHAN IS DAVIS-MONTHAN AIR FORCE BASE
NAS    - NAVAL AIR STATION
         EL CENTRO NAS IS EL CENTRO NAVAL AIR STATION
N/A    - NOT AVAILABLE


USA.gov is the U.S. government's official web portal to all federal, state and local government web resources and services.